{"data":{"norad_id":57983,"epoch":"2026-05-24T20:39:57.961728Z","epoch_age_seconds":87188,"freshness":"FRESH","line1":"1 57983U 23151V   26144.86108752  .00000896  00000+0  42090-4 0  9999","line2":"2 57983  43.0027 283.8379 0001648 270.4306  89.6357 15.27575059147197","mean_motion":15.27575059,"eccentricity":0.0001648,"inclination_deg":43.0027,"raan_deg":283.8379,"arg_perigee_deg":270.4306,"mean_anomaly_deg":89.6357,"bstar":4.209e-5,"rev_number":14719,"period_min":94.267053623059,"perigee_km":481.93316530418,"apogee_km":484.19461711792,"semimajor_km":6861.200891211,"source":"CELESTRAK","updated_at":"2026-05-25T13:38:18.488677Z"}}